EW3172 Weather Reports


time (UTC)temp
C
wind
direction
speed
KPH
gust
KPH
rain 1hr
cm
rain 24hr
cm
rain mn
cm
humidity
%
barometer
mb
20260507040100 10 144 0.0 0.0 0.00 0.00 0.00 71 1016.2
20260507034555 10 144 0.0 0.0 0.00 0.00 0.00 69 1016.2
20260507033102 10 144 0.0 0.0 0.00 0.00 0.00 69 1016.1
20260507031604 10 144 0.0 0.0 0.00 0.00 0.00 71 1015.9
20260507030054 10 144 0.0 0.0 0.00 0.00 0.00 75 1015.8
20260507024554 11 144 0.0 0.0 0.00 0.00 0.00 79 1015.8
20260507023052 11 144 0.0 0.0 0.00 0.00 0.00 80 1015.7
20260507021552 11 144 0.0 0.0 0.00 0.00 0.00 79 1015.5
20260507020053 11 144 0.0 0.0 0.00 0.00 0.00 78 1015.6
20260507014555 12 144 0.0 0.0 0.00 0.00 0.00 78 1015.6
20260507013108 12 144 0.0 0.0 0.00 0.00 0.00 75 1015.6
20260507011551 12 144 0.0 0.0 0.00 0.00 0.00 74 1015.7
20260507010101 12 144 0.0 0.0 0.00 0.00 0.00 74 1015.6
20260507004550 12 144 0.0 0.0 0.00 0.00 0.00 71 1015.6
20260507003049 13 144 0.0 0.0 0.00 0.00 0.00 71 1015.6
20260507001552 13 144 0.0 0.0 0.00 0.00 0.00 70 1015.5
20260507000048 13 144 0.0 0.0 0.00 0.00 0.00 70 1015.4
20260506234549 13 143 0.0 0.0 0.00 0.00 0.00 69 1015.5
20260506233100 13 143 0.0 0.0 0.00 0.00 0.00 68 1015.5
20260506231546 14 156 0.0 0.0 0.00 0.00 0.00 65 1015.6
20260506230044 14 157 0.0 0.0 0.00 0.00 0.00 63 1015.7
20260506224543 15 157 0.0 0.0 0.00 0.00 0.00 60 1015.9
20260506223042 15 156 0.0 8.0 0.00 0.00 0.00 60 1016.0
20260506221543 15 211 0.0 9.7 0.00 0.00 0.00 47 1016.2
20260506220042 15 123 0.0 3.2 0.00 0.00 0.00 63 1016.3
20260506214540 15 112 0.0 0.0 0.00 0.00 0.00 64 1016.6
20260506213040 15 109 0.0 8.0 0.00 0.00 0.00 66 1016.6
20260506211540 15 168 0.0 1.6 0.00 0.00 0.00 64 1016.9
20260506210039 15 168 0.0 8.0 0.00 0.00 0.00 62 1016.8
20260506204539 15 175 0.0 1.6 0.00 0.00 0.00 63 1016.9
20260506203038 15 175 0.0 4.8 0.00 0.00 0.00 61 1016.9
20260506201540 15 175 0.0 6.4 0.00 0.00 0.00 60 1017.1
20260506200042 15 175 0.0 4.8 0.00 0.00 0.00 61 1017.4
20260506194544 16 185 0.0 6.4 0.00 0.00 0.00 56 1017.5
20260506193035 16 243 0.0 0.0 0.00 0.00 0.00 56 1017.6
20260506191534 16 221 0.0 1.6 0.00 0.00 0.00 50 1017.9
20260506190030 16 214 0.0 4.8 0.00 0.00 0.00 49 1018.0
20260506184526 15 319 0.0 6.4 0.00 0.03 0.00 52 1018.1
20260506183024 15 319 1.6 8.0 0.00 0.03 0.00 49 1018.2
20260506181522 14 322 0.0 4.8 0.00 0.03 0.00 51 1018.4
20260506180020 14 322 0.0 12.9 0.00 0.03 0.00 52 1018.4
20260506174518 14 324 0.0 8.0 0.00 0.03 0.00 52 1018.3
20260506173022 13 323 1.6 8.0 0.00 0.03 0.00 54 1018.2
20260506171513 13 323 0.0 4.8 0.00 0.03 0.00 57 1018.1
20260506170009 12 323 0.0 9.7 0.00 0.03 0.00 56 1018.2
20260506164507 12 323 1.6 9.7 0.00 0.05 0.00 58 1018.3
20260506163005 11 322 1.6 8.0 0.00 0.05 0.00 57 1018.2
20260506161501 11 322 1.6 11.3 0.00 0.05 0.00 52 1018.2
20260506160110 11 314 1.6 12.9 0.00 0.05 0.00 50 1018.2
20260506154556 10 314 0.0 14.5 0.00 0.18 0.00 50 1018.2
20260506153051 10 308 3.2 9.7 0.00 0.18 0.00 52 1018.1
20260506151548 8 321 0.0 8.0 0.00 0.18 0.00 54 1018.1
20260506150044 7 324 0.0 0.0 0.00 0.18 0.00 60 1018.1
20260506144539 7 324 0.0 0.0 0.00 0.36 0.00 63 1018.1
20260506143038 6 324 0.0 0.0 0.00 0.36 0.00 65 1018.0
20260506141542 6 324 0.0 0.0 0.00 0.36 0.00 69 1018.0
20260506140029 5 324 0.0 0.0 0.00 0.36 0.00 70 1017.8
20260506134526 5 324 0.0 0.0 0.00 0.51 0.00 72 1017.7
20260506133023 3 324 0.0 0.0 0.00 0.51 0.00 79 1017.3
20260506131519 2 324 0.0 0.0 0.00 0.51 0.00 85 1017.2
20260506130020 2 324 0.0 0.0 0.00 0.51 0.00 85 1017.2
20260506124516 2 324 0.0 0.0 0.00 0.51 0.00 86 1017.0
20260506123017 3 324 0.0 0.0 0.00 0.51 0.00 88 1016.8
20260506121516 3 324 1.6 6.4 0.00 0.51 0.00 89 1016.8
20260506120011 2 326 1.6 6.4 0.00 0.51 0.00 91 1016.7
20260506114511 2 330 0.0 4.8 0.00 0.51 0.00 93 1016.5
20260506113009 2 330 1.6 4.8 0.00 0.51 0.00 95 1016.5
20260506111506 2 345 0.0 0.0 0.00 0.51 0.00 96 1016.4
20260506110005 2 345 0.0 3.2 0.00 0.51 0.00 98 1016.4
20260506104506 2 347 0.0 0.0 0.00 0.51 0.00 98 1016.2
20260506103008 2 347 0.0 0.0 0.00 0.51 0.00 98 1016.2
20260506101505 1 347 0.0 4.8 0.00 0.51 0.00 98 1016.2
20260506100003 1 21 0.0 0.0 0.00 0.51 0.00 98 1016.2
20260506094502 1 21 0.0 0.0 0.00 0.51 0.00 98 1016.2
20260506093002 1 21 0.0 0.0 0.00 0.51 0.00 98 1016.2
20260506091503 1 21 0.0 0.0 0.00 0.51 0.00 98 1016.1
20260506090059 1 21 0.0 0.0 0.00 0.51 0.00 98 1016.3
20260506084558 1 21 0.0 0.0 0.00 0.51 0.00 98 1016.4
20260506083057 1 21 0.0 0.0 0.00 0.51 0.00 98 1016.5
20260506081555 1 21 0.0 0.0 0.00 0.51 0.00 98 1016.5
20260506073057 2 114 0.0 0.0 0.00 0.53 0.00 98 1016.7
20260506071553 2 114 0.0 0.0 0.00 0.53 0.00 98 1016.8
20260506070107 2 114 0.0 0.0 0.00 0.53 0.00 98 1016.7
20260506061544 2 114 0.0 0.0 0.00 0.61 0.53 98 1016.1
20260506044550 3 114 0.0 0.0 0.00 0.66 0.53 98 1015.3
20260506043037 3 114 0.0 0.0 0.00 0.66 0.53 98 1015.1
20260506041546 3 114 0.0 0.0 0.00 0.66 0.53 98 1015.1